Location: Gand�
(15.0971°N, 12.6564°W)
Time: 15:24:51
(UTC+00:00)

Cosmos 1400 Rocket - Pass Details

Date: 07 August 2020
Orbit: 522 x 567 km, 81.2° (Epoch: 19 September)

Event Time Altitude Azimuth Distance (km) Brightness Sun altitude
Rises 06:10:51 0° 187° (S) 2,708 6.1 -6.3°
Reaches altitude 10° 06:13:01 10° 188° (S) 1,809 5.2 -5.8°
Maximum altitude 06:17:00 82° 274° (W) 548 2.8 -4.9°
Drops below altitude 10° 06:20:56 10° 4° (N) 1,784 5.7 -4.0°
Sets 06:23:04 0° 5° (N) 2,668 6.6 -3.5°
